Location: Ferques
(50.8300°N, 1.7599°E)
Time: 19:34:40
(UTC+00:00)

Cosmos 2298 Rocket - Pass Details

Date: 19 May 2025
Orbit: 773 x 781 km, 74.0° (Epoch: 23 June)

Event Time Altitude Azimuth Distance (km) Brightness Sun altitude
Rises 21:16:16 0° 336° (NNW) 3,281 9.1 -11.6°
Reaches altitude 10° 21:18:40 10° 339° (NNW) 2,349 7.9 -11.8°
Maximum altitude 21:24:01 71° 63° (ENE) 828 4.1 -12.3°
Enters shadow 21:28:00 18° 146° (SE) 1,839 5.3 -12.7°
